Date String (YYYY-MM-DD hh:mm:ss) UTC,Instrument flags,Ambient pressure (hPa),Sample flow (lpm),Bypass flow (lpm),Sample temperature (°C),Ambient temperature (°C),ASC tube jacket temperature (°C),LED temperature (°C),Box temperature (°C),Sample RH (%),Span deviation,Mass concentration (μg/m³),Mass concentration (μg/m³),Mass concentration (μg/m³)
DateTimeUTC,F1_M11,P_M11,Q1_M11,Q2_M11,T1_M11,T2_M11,T3_M11,T4_M11,T5_M11,U1_M11,ZSPAN_M11,X2_M11,X0_M11,X1_M11
2022-04-28 08:00:00,,0820.3,4.99,0.00,26.6,25.9,00.0,35.7,28.4,09.7,0002.8,0009.24,0023.97,0005.41
2022-04-28 08:01:00,,0820.4,5.01,0.00,26.6,25.9,00.0,35.7,28.4,09.7,0003.2,0009.21,0023.86,0005.41
2022-04-28 08:02:00,,0820.5,5.01,0.00,26.6,25.9,00.0,35.7,28.4,09.8,0003.3,0009.25,0024.00,0005.42
2022-04-28 08:03:00,,0820.4,5.00,0.00,26.6,26.0,00.0,35.7,28.5,10.4,0003.3,0009.30,0023.98,0005.44
2022-04-28 08:04:00,,0820.4,5.00,0.00,26.7,26.1,00.0,35.6,28.5,10.8,0003.3,0009.22,0023.80,0005.42
2022-04-28 08:05:00,,0820.4,4.99,0.00,26.7,26.1,00.0,35.7,28.6,11.0,0003.4,0009.28,0024.74,0005.39
2022-04-28 08:06:00,,0820.4,5.00,0.00,26.7,26.2,00.0,35.7,28.6,11.2,0003.5,0009.29,0025.24,0005.36
2022-04-28 08:07:00,,0820.5,5.01,0.00,26.8,26.3,00.0,35.7,28.6,11.6,0004.1,0009.41,0026.00,0005.32
2022-04-28 08:08:00,,0820.5,4.99,0.00,26.8,26.3,00.0,35.7,28.7,11.6,0004.2,0009.40,0026.46,0005.25
2022-04-28 08:09:00,,0820.5,5.00,0.00,26.8,26.4,00.0,35.7,28.7,11.6,0004.5,0009.42,0025.98,0005.19
2022-04-28 08:10:00,,0820.4,4.99,0.00,26.9,26.4,00.0,35.7,28.7,11.7,0004.3,0009.38,0026.27,0005.13
2022-04-28 08:11:00,,0820.5,5.01,0.00,26.9,26.4,00.0,35.8,28.7,11.9,0003.7,0009.44,0026.75,0005.07
2022-04-28 08:12:00,,0820.5,5.01,0.00,26.9,26.5,00.0,35.8,28.8,12.0,0003.6,0009.51,0026.85,0005.03
2022-04-28 08:13:00,,0820.6,5.00,0.00,26.9,26.5,00.0,35.8,28.8,12.1,0003.2,0009.48,0025.98,0004.97
2022-04-28 08:14:00,,0820.5,4.99,0.00,26.9,26.5,00.0,35.8,28.8,12.2,0002.6,0009.35,0026.31,0004.91
2022-04-28 08:15:00,,0820.5,5.00,0.00,27.0,26.5,00.0,35.8,28.8,12.4,0002.7,0009.44,0028.01,0004.89
2022-04-28 08:16:00,,0820.6,5.00,0.00,27.0,26.5,00.0,35.8,28.8,12.4,0002.4,0009.49,0028.70,0004.88
2022-04-28 08:17:00,,0820.5,5.00,0.00,27.0,26.5,00.0,35.8,28.8,12.6,0002.2,0009.54,0028.81,0004.87
2022-04-28 08:18:00,,0820.5,5.00,0.00,27.0,26.6,00.0,35.9,28.8,13.0,0001.6,0009.43,0028.56,0004.87
2022-04-28 08:19:00,,0820.5,5.01,0.00,27.0,26.6,00.0,35.9,28.8,13.6,0001.2,0009.43,0029.97,0004.88
2022-04-28 08:20:00,,0820.4,4.99,0.00,27.0,26.6,00.0,35.9,28.9,13.9,0001.2,0009.45,0030.68,0004.90
2022-04-28 08:21:00,,0820.4,5.00,0.00,27.1,26.6,00.0,35.9,28.9,14.3,0000.5,0009.42,0030.70,0004.91
2022-04-28 08:22:00,,0820.3,4.99,0.00,27.1,26.6,00.0,35.9,28.9,14.6,0001.1,0009.47,0030.39,0004.93
2022-04-28 08:23:00,,0820.4,5.00,0.00,27.1,26.6,00.0,35.9,28.9,14.6,0000.2,0009.43,0031.30,0004.93
2022-04-28 08:24:00,,0820.3,5.02,0.00,27.1,26.6,00.0,36.0,28.9,14.8,-000.8,0009.50,0031.85,0004.95
2022-04-28 08:25:00,,0820.3,5.00,0.00,27.1,26.6,00.0,36.0,28.9,15.0,-000.1,0009.70,0031.52,0004.97
2022-04-28 08:26:00,,0820.3,4.99,0.00,27.1,26.6,00.0,36.0,28.9,15.0,-000.9,0009.66,0031.35,0004.97
2022-04-28 08:27:00,,0820.3,4.99,0.00,27.1,26.6,00.0,36.0,28.9,15.1,-001.2,0009.65,0030.87,0004.97
2022-04-28 08:28:00,,0820.3,5.03,0.00,27.1,26.6,00.0,36.0,28.9,15.4,-002.1,0009.67,0030.57,0004.98
2022-04-28 08:29:00,,0820.3,5.00,0.00,27.1,26.5,00.0,36.0,28.9,15.5,-001.9,0009.67,0030.82,0005.01
2022-04-28 08:30:00,,0820.3,5.00,0.00,27.1,26.5,00.0,36.0,28.9,15.5,-001.9,0009.71,0031.11,0005.02
2022-04-28 08:31:00,,0820.3,5.00,0.00,27.1,26.5,00.0,36.0,28.9,15.6,-002.1,0009.73,0031.73,0005.02
2022-04-28 08:32:00,,0820.3,5.00,0.00,27.1,26.5,00.0,36.0,28.9,15.6,-001.8,0009.78,0031.63,0005.04
2022-04-28 08:33:00,,0820.4,4.99,0.00,27.1,26.5,00.0,36.0,28.9,15.5,-001.7,0009.71,0031.66,0005.04
2022-04-28 08:34:00,,0820.4,5.01,0.00,27.1,26.6,00.0,36.0,28.9,15.5,-001.0,0009.69,0030.44,0005.04
2022-04-28 08:35:00,,0820.4,4.99,0.00,27.1,26.6,00.0,36.0,28.9,15.5,0000.2,0009.74,0030.99,0005.05
2022-04-28 08:36:00,,0820.5,4.99,0.00,27.1,26.6,00.0,36.1,28.9,15.6,-000.0,0009.67,0032.52,0005.04
2022-04-28 08:37:00,,0820.4,5.02,0.00,27.1,26.6,00.0,36.1,29.0,15.7,0000.8,0009.77,0033.18,0005.04
2022-04-28 08:38:00,,0820.4,5.00,0.00,27.1,26.6,00.0,36.1,28.9,15.8,0001.1,0009.78,0032.33,0005.05
2022-04-28 08:39:00,,0820.4,4.99,0.00,27.1,26.6,00.0,36.1,28.9,15.8,0001.6,0009.83,0032.78,0005.06
2022-04-28 08:40:00,,0820.4,5.00,0.00,27.2,26.6,00.0,36.1,28.9,15.8,0002.2,0009.90,0033.20,0005.07
2022-04-28 08:41:00,,0820.3,4.99,0.00,27.2,26.6,00.0,36.1,28.9,15.8,0002.9,0009.88,0031.38,0005.08
2022-04-28 08:42:00,,0820.4,5.00,0.00,27.2,26.6,00.0,36.1,28.9,15.7,0003.4,0009.80,0030.27,0005.08
2022-04-28 08:43:00,,0820.3,5.01,0.00,27.2,26.6,00.0,36.1,28.9,15.7,0003.7,0009.84,0031.59,0005.06
2022-04-28 08:44:00,,0820.4,4.99,0.00,27.1,26.5,00.0,36.1,28.9,15.7,0001.4,0009.87,0031.96,0005.07
2022-04-28 08:45:00,,0820.4,5.00,0.00,27.1,26.5,00.0,36.1,28.9,15.7,0000.0,0009.84,0032.76,0005.07
2022-04-28 08:46:00,,0820.5,5.01,0.00,27.1,26.6,00.0,36.1,28.9,15.7,0001.4,0009.77,0032.01,0005.06
2022-04-28 08:47:00,,0820.5,4.99,0.00,27.1,26.5,00.0,36.1,28.9,15.7,0003.3,0009.75,0029.95,0005.06
2022-04-28 08:48:00,,0820.5,4.99,0.00,27.2,26.5,00.0,36.1,28.9,15.7,0002.7,0009.64,0028.86,0005.06
2022-04-28 08:49:00,,0820.6,5.00,0.00,27.2,26.6,00.0,36.1,29.0,15.7,0002.5,0009.55,0028.76,0005.07
2022-04-28 08:50:00,,0820.5,5.01,0.00,27.2,26.6,00.0,36.1,29.0,15.6,0003.0,0009.47,0028.29,0005.05
2022-04-28 08:51:00,,0820.6,5.00,0.00,27.2,26.6,00.0,36.1,28.9,15.6,0002.3,0009.44,0027.80,0005.04
2022-04-28 08:52:00,,0820.6,4.99,0.00,27.2,26.6,00.0,36.1,29.0,15.6,0002.4,0009.49,0028.33,0005.01
2022-04-28 08:53:00,,0820.6,4.99,0.00,27.2,26.6,00.0,36.1,28.9,15.7,0001.6,0009.52,0029.44,0004.99
2022-04-28 08:54:00,,0820.6,5.00,0.00,27.2,26.6,00.0,36.1,28.9,15.7,0001.7,0009.50,0028.96,0004.99
2022-04-28 08:55:00,,0820.6,5.00,0.00,27.2,26.6,00.0,36.1,29.0,15.6,0001.1,0009.45,0029.75,0004.96
2022-04-28 08:56:00,,0820.5,5.00,0.00,27.2,26.6,00.0,36.1,29.0,15.6,0000.5,0009.48,0031.01,0004.95
2022-04-28 08:57:00,,0820.6,5.02,0.00,27.2,26.6,00.0,36.1,29.0,15.6,0001.1,0009.43,0031.89,0004.95
2022-04-28 08:58:00,,0820.6,4.99,0.00,27.2,26.6,00.0,36.1,29.0,15.5,0002.1,0009.44,0032.69,0004.95
2022-04-28 08:59:00,,0820.6,4.99,0.00,27.2,26.6,00.0,36.1,29.0,15.5,0001.3,0009.39,0032.83,0004.92
